Regional Weather Roundup
Issued by NWS State College, PA

Home | Current Version | Previous Version | Graphics & Text | Print | Product List | Glossary Off
Versions: 1 2 3 4 5 6 7 8 9 10 11 12 13 14 15 16 17 18 19 20 21 22 23 24 25 26 27 28 29 30 31 32 33 34 35 36 37 38 39 40 41 42 43 44 45 46 47 48 49 50

000
ASUS41 KCTP 180603
RWRCTP

REGIONAL WEATHER ROUNDUP
NATIONAL WEATHER SERVICE STATE COLLEGE PA
100 AM EST THU JAN 18 2018

Note: "fair" indicates few or no clouds below 12,000 feet with no
significant weather and/or obstructions to visibility.

* = STATION THAT DOES NOT REPORT PRECIPITATION /E.G. RAIN...SNOW...ETC/
    THUNDER OR FOG.

PAZ002>004-007>009-013>016-020>023-029>032-180700-
WESTERN PENNSYLVANIA

CITY           SKY/WX    TMP DP  RH WIND       PRES   REMARKS
ERIE           FAIR      13   4  67 S16G24    30.17F WCI  -3
MEADVILLE      FAIR       5   3  91 S12       30.17F WCI -11
FRANKLIN*      FLURRIES   5   2  87 SW10      30.19F WCI -10
NEW CASTLE     FAIR       6   4  91 S5        30.27F WCI  -3
BEAVER COUNTY  NOT AVBL
BUTLER*        FAIR       6   3  87 SW9       30.26F WCI  -8
PITTSBURGH INT FAIR       8   3  80 SW9       30.28F WCI  -5
PITTSBURGH     FAIR       6   0  76 SW10      30.29S WCI  -9
INDIANA*       CLOUDY     7   3  85 W10G17    30.29F WCI  -8
LATROBE        FAIR       7   3  85 S16       30.31F WCI -11
WASHINGTON CO* MOCLDY     7   3  84 SW10      30.34F WCI  -8
$$

PAZ004>006-010>012-017>019-024>028-033>037-041-042-045-046-049>053-180700-
CENTRAL PENNSYLVANIA

CITY           SKY/WX    TMP DP  RH WIND       PRES   REMARKS
BRADFORD       MOCLDY     7   4  87 SW8       30.07F WCI  -6
DUBOIS         MOCLDY     4   0  83 SW12      30.16F FOG     WCI -12
CLEARFIELD     CLOUDY     9   4  80 SW10      30.18F WCI  -5
JOHNSTOWN      CLOUDY     6   3  87 W13       30.14F FOG     WCI -10
ALTOONA        FAIR      11   4  73 W8        30.17F WCI  -1
STATE COLLEGE  FAIR      11   4  75 W14       30.18F WCI  -5
WILLIAMSPORT   FAIR      13   6  74 W13       30.19F WCI  -2
SELINSGROVE    FAIR       3  -2  79 CALM      30.22F HAZE
FT INDIANTOWN  FAIR      12   6  78 SW3       30.20F
CAPITAL CITY   FAIR      14   5  67 W9        30.23F WCI   2
HARRISBURG     FAIR      14   6  70 NW9       30.22F WCI   2
YORK           FAIR       9   4  80 W5        30.21F WCI   1
$$

PAZ038>040-043-044-047-048-054-055-060>062-067>071-180700-
EASTERN PENNSYLVANIA

CITY           SKY/WX    TMP DP  RH WIND       PRES   REMARKS
SCRANTON       FAIR       9   6  88 SW7       30.12F WCI  -2
MOUNT POCONO   FAIR       7   4  87 W9        30.01F WCI  -7
ALLENTOWN      FAIR       5   0  79 SW7       30.18F WCI  -7
QUAKERTOWN*    FAIR      14   7  73 CALM      30.17F
READING        FAIR     N/A N/A N/A W5        30.20F
LANCASTER      FAIR      11   6  81 NW5       30.21F WCI   3
COATESVILLE    FAIR      14   7  73 NW13      30.18F WCI   0
POTTSTOWN      FAIR      13   5  70 W7        30.21F WCI   3
BLUE BELL      FAIR      18   9  68 W3        30.21F
DOYLESTOWN     FAIR      14   7  73 W3        30.17F
WILLOW GROVE   NOT AVBL
NORTH PHILA    FAIR      20   9  62 NW8       30.21F WCI  10
PHILADELPHIA   FAIR      20   8  60 W8        30.22F WCI  10
$$



USA.gov is the U.S. government's official web portal to all federal, state and local government web resources and services.